ENVISAT

Last updated on Sun Jun 21 2026 00:02:15 GMT+0000 (Coordinated Universal Time)

1 27386U 02009A 26171.45747044 .00000056 00000+0 31949-4 0 9999 2 27386 98.3835 122.7030 0001397 89.1725 23.4510 14.39065404273958
UTC large
Height (km)
Speed (km/s)
/
Latitude / Longitude
Inclination (degrees)
Orbital Period (minutes)
Azimuth
Elevation
Range (km)
Doppler Factor

Next 0 passes for location: London (51.5072 / 0.1276)

No passes found over London.
ENVISAT